Meteo Giornale » Osservazioni meteo Italia » Cagliari-Elmas

ore: 16:50 - Osservazioni Meteo Cagliari-Elmas
Lat. 39° 15' N Lon. 9° 4' E Alt. 4 metri s.l.m.

poco_nuvoloso Europe/Rome

14 °C

Poco Nuvoloso

Temp. 24 Ore

11 °C

15 °C

Sud-Est

29.6 Km/h

Dew point 8 °C

Umidità 67 %

Visibilità  10 Km

Il sole sorge alle ore 07:36

Il sole tramonta alle ore 17:34

Data e Ora Cielo e Fenomeni T °C DP °C Um. % Pres. hPa Vis. km Vento km/h
Oggi h: 16:50 poco_nuvoloso Poco Nuvoloso 14 8 67 1012 10 SE 29.6
Oggi h: 16:20 poco_nuvoloso Poco Nuvoloso 14 8 67 1012 8 SE 31.5
Oggi h: 15:50 poco_nuvoloso Poco Nuvoloso 14 8 67 1012 8 SE 33.3
Oggi h: 15:20 poco_nuvoloso Poco Nuvoloso 15 8 62 1012 8 SE 33.3
Oggi h: 14:50 poco_nuvoloso Poco Nuvoloso 15 7 58 1012 10 SE 37
Oggi h: 14:20 poco_nuvoloso Poco Nuvoloso 14 7 62 1012 10 SE 31.5
Oggi h: 13:50 nuvoloso Nuvoloso 15 8 62 1012 7 SE 37
Oggi h: 13:20 nuvoloso Nuvoloso 15 8 62 1013 7 SE 33.3
Oggi h: 12:50 nuvoloso Nuvoloso 15 8 62 1013 7 SE 31.5
Oggi h: 12:20 nuvoloso Nuvoloso 15 8 62 1013 7 SE 31.5
Oggi h: 11:50 foschia Foschia 15 8 62 1014 5 SE 33.3
Oggi h: 11:20 foschia Foschia 15 7 58 1014 5 SE 35.2
Oggi h: 10:50 foschia Foschia 14 8 67 1014 5 SE 35.2
Oggi h: 10:20 nuvoloso Nuvoloso 14 7 62 1014 7 SE 35.2
Oggi h: 09:50 nuvoloso Nuvoloso 13 7 66 1014 7 SE 33.3
Oggi h: 09:20 nuvoloso Nuvoloso 13 6 62 1013 7 SE 33.3
Oggi h: 08:50 nuvoloso Nuvoloso 13 6 62 1013 7 SE 29.6
Oggi h: 08:20 nuvoloso Nuvoloso 13 7 66 1013 10 E/SE 25.9
Oggi h: 07:50 nuvoloso Nuvoloso 12 6 66 1013 10 SE 27.8
Oggi h: 07:20 nuvoloso Nuvoloso 12 7 71 1013 10 E/SE 24
Oggi h: 06:50 nuvoloso Nuvoloso 12 6 66 1012 10 SE 25.9
Oggi h: 06:20 nuvoloso Nuvoloso 12 6 66 1012 10 SE 27.8
Oggi h: 05:50 nuvoloso Nuvoloso 12 5 62 1012 10 SE 29.6
Oggi h: 05:20 nuvoloso Nuvoloso 12 6 66 1012 10 E/SE 22.2
Oggi h: 04:50 nuvoloso Nuvoloso 12 7 71 1012 10 E/SE 25.9
Oggi h: 04:20 nuvoloso Nuvoloso 12 7 71 1012 10 E/SE 22.2
Oggi h: 03:50 nuvoloso Nuvoloso 11 6 71 1012 10 E/SE 18.5
Oggi h: 03:20 sereno Sereno 12 5 62 1012 10 SE 25.9
Oggi h: 02:50 sereno Sereno 12 5 62 1012 10 SE 24
Oggi h: 02:20 sereno Sereno 12 5 62 1012 10 SE 27.8
Oggi h: 01:50 sereno Sereno 12 6 66 1012 10 SE 25.9
Oggi h: 01:20 poco_nuvoloso Poco Nuvoloso 12 6 66 1012 10 SE 27.8
Oggi h: 00:50 nuvoloso Nuvoloso 12 7 71 1012 10 SE 24
Oggi h: 00:20 nuvoloso Nuvoloso 13 7 66 1012 10 SE 25.9
Ieri h: 23:50 nuvoloso Nuvoloso 13 7 66 1012 10 SE 27.8
Ieri h: 23:20 nuvoloso Nuvoloso 13 6 62 1012 10 SE 29.6
Ieri h: 22:50 nuvoloso Nuvoloso 13 6 62 1012 10 SE 31.5
Ieri h: 22:20 nuvoloso Nuvoloso 12 6 66 1012 10 SE 25.9
Ieri h: 21:50 nuvoloso Nuvoloso 13 7 66 1012 10 SE 27.8
Ieri h: 21:20 nuvoloso Nuvoloso 13 7 66 1011 10 SE 29.6
Ieri h: 20:50 poco_nuvoloso Poco Nuvoloso 13 6 62 1011 10 SE 35.2
Ieri h: 20:20 sereno Sereno 13 6 62 1011 10 SE 33.3
Ieri h: 19:50 sereno Sereno 14 5 54 1010 10 SE 37
Ieri h: 19:20 sereno Sereno 13 6 62 1010 10 SE 37
Ieri h: 18:50 sereno Sereno 13 7 66 1010 10 SE 37
Ieri h: 18:20 poco_nuvoloso Poco Nuvoloso 14 6 58 1010 10 SE 35.2
Ieri h: 17:50 nuvoloso Nuvoloso 14 7 62 1010 6 SE 37
Ieri h: 17:20 coperto_pioggia Pioggia Debole 14 10 76 1009 5 S/SE 38.8
Ieri h: 16:50 nuvoloso_temporali Temporale con Pioggia Debole 15 8 62 1009 5 S/SE 40.7